Regional Weather Roundup
Issued by NWS Green Bay, WI

Home | Current Version | Previous Version | Graphics & Text | Print | Product List | Glossary Off
Versions: 1 2 3 4 5 6 7 8 9 10 11 12 13 14 15 16 17 18 19 20 21 22 23 24 25 26 27 28 29 30 31 32 33 34 35 36 37 38 39 40 41 42 43 44 45 46 47 48 49 50

418
ASUS43 KGRB 012100
RWRGRB

NORTH-CENTRAL AND NORTHEAST WISCONSIN REGIONAL WEATHER ROUNDUP
NATIONAL WEATHER SERVICE GREEN BAY WI
300 PM CST WED MAR 01 2017

WIZ005-009-010>012-018-019-012200-
NORTH CENTRAL WISCONSIN

CITY           SKY/WX    TMP DP  RH WIND       PRES   REMARKS
IRONWOOD       FLURRIES  21  16  81 N8        29.88
MANITOWISH WTR NOT AVBL
ARBOR VITAE    NOT AVBL
EAGLE RIVER    NOT AVBL
LAND O LAKES   NOT AVBL
RHINELANDER    CLOUDY    23  16  74 N10G16    29.77R
PHILLIPS       NOT AVBL
ANTIGO         NOT AVBL
TOMAHAWK       NOT AVBL
MERRILL        NOT AVBL
$$

WIZ013-073-012200-
NORTHEAST WISCONSIN

CITY           SKY/WX    TMP DP  RH WIND       PRES   REMARKS
IRON MOUNTAIN  CLOUDY    24  12  60 N18G25    29.72R
MARINETTE      LGT SNOW  24  21  88 N16G23    29.70R VSB 3/4
$$

WIZ017-030-035>037-045-012200-
CENTRAL WISCONSIN

CITY           SKY/WX    TMP DP  RH WIND       PRES   REMARKS
MEDFORD        NOT AVBL
WAUSAU         CLOUDY    25  18  74 NW18G25   29.76R
MOSINEE        PTSUNNY   25  21  86 NW20      29.77
MARSHFIELD     MIX PCPN  26  19  74 NW20      29.79R
WISC RAPIDS    LGT SNOW  27  23  85 N14G24    29.80R FOG
STEVENS POINT  NOT AVBL
WAUPACA        NOT AVBL
SHAWANO        LGT SNOW  28  24  85 N10G17    29.73R
CLINTONVILLE   NOT AVBL
WAUTOMA        LGT SNOW  28  25  88 NW16G26   29.76R VSB 3/4
$$

WIZ038-039-048-051-012200-
FOX VALLEY

CITY           SKY/WX    TMP DP  RH WIND       PRES   REMARKS
NWS GREEN BAY  SNOW      27  26  96 NW16      29.70R VSB 1/2
APPLETON       LGT SNOW  27  25  93 NW17G26   29.68R VSB 3/4
OSHKOSH        LGT SNOW  27  23  85 NW24G32   29.70R FOG
FOND DU LAC    LGT SNOW  28  22  78 NW17      29.70R
$$

WIZ022-050-052-012200-
EAST CENTRAL WISCONSIN

CITY           SKY/WX    TMP DP  RH WIND       PRES   REMARKS
EPHRAIM        NOT AVBL
WASHINGTON ISL NOT AVBL
STURGEON BAY   SNOW      24  21  88 N25G33    29.67R VSB 1/2 WCI   8
MANITOWOC      LGT SNOW  27  25  93 NW20G26   29.66R VSB 3/4
SHEBOYGAN      SNOW      27  23  85 NW17G25   29.66R VSB 1/2
$$

LMZ563-521-522-541>543-012200-
LAKESHORE

STATION/POSITION TIME  TEMP    WIND        PRES    VSBY  WAVE
                       AIR SEA DIR/SP/G                  HT/PER
                 (UTC) (F)     (DEG/KT/KT) (MB)    (MI)  (FT/S)
SHEBOYGAN LKSHOR 2000   26     330/ 18/ 22 1004.0R
KEWAUNEE LKSHORE 2030   25     350/ 15/ 25 1003.4R
NORTHPORT PIER   2040   25     340/ 26/ 34 1004.1R
SISTER BAY LKSHO 2005   24     360/ 32/ 38   N/A
CHAMBERS ISLAND  2040   24     320/ 26/ 31 1004.4R
MENOMINEE LKSHOR 2030   24     320/ 23/ 29 1004.1R
$$




USA.gov is the U.S. government's official web portal to all federal, state and local government web resources and services.